Content
SEND FEEDBACK

Daily
Averages
Monthly
Summary
United States of America

LAKE LURE, NORTH CAROLINA


Home > North America > United States > North Carolina
Elevation: 105 feet     Latitude: 35 25N     Longitude: 082 14W

WEATHER
 
SELECT A DAY
Number of Records: 229,440;   Date Range: 1/1/95 - 10/20/14
 
SHARE

PRINT THIS DATA

[ ← Previous Day ]
WEATHER ALMANAC - JANUARY 3, 2013
[ Next Day → ]
[ °C ]   °F
Weather ElementAverageHighLow
Temperature36.5 °F41 °F (12:39 pm)30 °F (9:54 pm)
Dewpoint32.4 °F37.4 °F (2:47 am)25 °F (6:54 pm)
Humidity85.9 %100 % (2:47 am)62 % (3:54 pm)
Barometer30.15 in30.30 in (11:54 pm)30.08 in (2:54 am)
Wind Speed9.6 mph17.3 mph (3:54 pm)
Weather ElementAverage
Visibility7.1 mi
Wind DirectionNW (314.3 °)

Weather ElementTotal
Precipitation---
Heating Degree Days29.5 (Base 65)
Averaged from 42 records on January 3, 2013
WEATHER CONDITIONS BREAKOUT
WIND DIRECTION BREAKOUT
WEATHER BY HOUR - JANUARY 3, 2013
[ °C ]   °F
Local TimeTemperatureDewpointHumidityBarometerVisibilityWind DirectionWind SpeedGust SpeedPrecipitationEventsConditions
12:54 AM37.9 °F34.0 °F86 %30.11 in10.0 miNW (310°)3.5 mphOvercast
1:54 AM39.0 °F36.0 °F89 %30.11 in10.0 miCalmOvercast
2:06 AM39.2 °F35.6 °F87 %30.10 in8.0 miCalmOvercast
2:47 AM37.4 °F37.4 °F100 %30.09 in1.8 miSouth (170°)4.6 mphOvercast
2:54 AM37.9 °F37.0 °F97 %30.08 in1.5 miSSE (160°)8.1 mphOvercast
3:28 AM37.4 °F37.4 °F100 %30.09 in2.5 miNNW (330°)4.6 mphOvercast
3:36 AM37.4 °F37.4 °F100 %30.10 in3.0 miNNW (330°)6.9 mphOvercast
3:44 AM37.4 °F37.4 °F100 %30.10 in2.0 miNNW (330°)6.9 mphOvercast
3:54 AM37.0 °F36.0 °F96 %30.10 in6.0 miNNW (340°)6.9 mphOvercast
4:14 AM37.4 °F35.6 °F93 %30.09 in9.0 miNNW (340°)8.1 mphOvercast
4:54 AM37.0 °F36.0 °F96 %30.10 in8.0 miNNW (330°)3.5 mphOvercast
5:13 AM37.4 °F35.6 °F93 %30.09 in3.0 miNNW (340°)9.2 mphOvercast
5:20 AM37.4 °F35.6 °F93 %30.10 in2.0 miNNW (340°)8.1 mphOvercast
5:30 AM35.6 °F35.6 °F100 %30.09 in1.8 miNNW (340°)6.9 mphOvercast
5:39 AM35.6 °F35.6 °F100 %30.09 in2.5 miNNW (330°)9.2 mphOvercast
5:54 AM36.0 °F35.1 °F97 %30.12 in3.0 miNNW (330°)9.2 mphOvercast
6:21 AM35.6 °F35.6 °F100 %30.10 in2.5 miNNW (340°)11.5 mphOvercast
6:47 AM35.6 °F35.6 °F100 %30.12 in3.0 miNNW (340°)15.0 mphOvercast
6:54 AM36.0 °F35.1 °F97 %30.14 in4.0 miNNW (340°)13.8 mphOvercast
7:11 AM35.6 °F33.8 °F93 %30.12 in5.0 miNorth (350°)12.7 mphOvercast
7:28 AM35.6 °F33.8 °F93 %30.13 in5.0 miNNW (340°)12.7 mphOvercast
7:54 AM35.1 °F34.0 °F96 %30.15 in6.0 miNNW (340°)12.7 mphOvercast
8:31 AM35.6 °F33.8 °F93 %30.14 in10.0 miNNW (340°)12.7 mphOvercast
8:54 AM36.0 °F32.0 °F86 %30.17 in10.0 miNNW (330°)13.8 mphOvercast
9:27 AM35.6 °F32.0 °F87 %30.15 in10.0 miNNW (340°)15.0 mphOvercast
9:54 AM37.0 °F30.9 °F79 %30.18 in10.0 miNNW (340°)12.7 mphOvercast
10:54 AM37.9 °F30.9 °F76 %30.18 in10.0 miNNW (340°)12.7 mphOvercast
11:54 AM39.0 °F30.9 °F73 %30.17 in10.0 miNNW (330°)12.7 mphOvercast
12:39 PM41.0 °F32.0 °F70 %30.13 in10.0 miNNW (340°)11.5 mphScattered Clouds
12:54 PM41.0 °F32.0 °F70 %30.14 in10.0 miNNW (340°)12.7 mphClear
1:14 PM39.2 °F32.0 °F75 %30.13 in10.0 miNorth (350°)10.4 mphMostly Cloudy
1:54 PM39.9 °F30.9 °F70 %30.14 in10.0 miNorth (350°)11.5 mphOvercast
2:54 PM39.9 °F28.0 °F63 %30.15 in10.0 miNorth (350°)15.0 mphScattered Clouds
3:54 PM39.0 °F27.0 °F62 %30.18 in10.0 miNNW (330°)17.3 mphClear
4:54 PM37.0 °F27.0 °F67 %30.21 in10.0 miNNW (340°)15.0 mphClear
5:54 PM35.1 °F26.1 °F70 %30.22 in10.0 miNorth (350°)11.5 mphClear
6:54 PM33.1 °F25.0 °F72 %30.26 in10.0 miNNW (330°)11.5 mphClear
7:54 PM33.1 °F25.0 °F72 %30.27 in10.0 miNNW (340°)10.4 mphClear
8:54 PM33.1 °F25.0 °F72 %30.28 in10.0 miNorth (360°)4.6 mphClear
9:54 PM30.0 °F25.0 °F82 %30.29 in10.0 miNNW (330°)4.6 mphClear
10:54 PM30.9 °F26.1 °F82 %30.29 in10.0 miNorth (350°)5.8 mphClear
11:54 PM30.0 °F25.0 °F82 %30.30 in10.0 miNorth (350°)6.9 mphClear
Hourly data recorded from KAVL, located miles away from Lake Lure, North Carolina







STORIES FROM OUR PARTNERS